Time,TemperatureF,DewpointF,PressureIn,WindDirection,WindDirectionDegrees,WindSpeedMPH,WindSpeedGustMPH,Humidity,HourlyPrecipIn,Conditions,Clouds,dailyrainin,SoftwareType,DateUTC
2013-06-15 00:01:00,62.7,54.3,29.75,NW,313,2.0,3.0,74,0.00,,,0.00,WeatherCatV1.10B1784,2013-06-15 04:01:00,
2013-06-15 00:06:00,62.6,54.2,29.75,North,352,5.0,5.0,74,0.00,,,0.00,WeatherCatV1.10B1784,2013-06-15 04:06:00,
2013-06-15 00:11:00,62.5,54.5,29.75,NNW,327,0.0,5.0,75,0.00,,,0.00,WeatherCatV1.10B1784,2013-06-15 04:11:00,
2013-06-15 00:16:00,62.5,54.1,29.75,NW,309,0.0,4.0,74,0.00,,,0.00,WeatherCatV1.10B1784,2013-06-15 04:16:00,
2013-06-15 00:21:00,62.6,54.2,29.75,NNW,331,0.0,1.0,74,0.00,,,0.00,WeatherCatV1.10B1784,2013-06-15 04:21:00,
2013-06-15 00:26:00,62.4,54.0,29.76,NW,304,0.0,5.0,74,0.00,,,0.00,WeatherCatV1.10B1784,2013-06-15 04:26:00,
2013-06-15 00:31:00,62.3,53.9,29.75,NNW,336,0.0,5.0,74,0.00,,,0.00,WeatherCatV1.10B1784,2013-06-15 04:31:00,
2013-06-15 00:36:00,62.2,53.8,29.76,NNW,336,4.0,4.0,74,0.00,,,0.00,WeatherCatV1.10B1784,2013-06-15 04:36:00,
2013-06-15 00:41:00,62.1,53.7,29.76,West,276,0.0,5.0,74,0.00,,,0.00,WeatherCatV1.10B1784,2013-06-15 04:41:00,
2013-06-15 00:46:00,62.2,53.8,29.76,WNW,283,3.0,4.0,74,0.00,,,0.00,WeatherCatV1.10B1784,2013-06-15 04:46:00,
2013-06-15 00:51:00,62.2,53.8,29.76,WNW,282,0.0,4.0,74,0.00,,,0.00,WeatherCatV1.10B1784,2013-06-15 04:51:00,
2013-06-15 00:56:00,62.0,53.6,29.76,WNW,300,0.0,3.0,74,0.00,,,0.00,WeatherCatV1.10B1784,2013-06-15 04:56:00,
2013-06-15 01:01:00,62.1,53.7,29.76,WNW,298,0.0,6.0,74,0.00,,,0.00,WeatherCatV1.10B1784,2013-06-15 05:01:00,
2013-06-15 01:06:00,62.0,53.6,29.76,NNW,329,3.0,6.0,74,0.00,,,0.00,WeatherCatV1.10B1784,2013-06-15 05:06:00,
2013-06-15 01:11:00,61.9,53.5,29.76,NW,310,3.0,3.0,74,0.00,,,0.00,WeatherCatV1.10B1784,2013-06-15 05:11:00,
2013-06-15 01:16:00,62.0,53.2,29.76,WSW,248,0.0,2.0,73,0.00,,,0.00,WeatherCatV1.10B1784,2013-06-15 05:16:00,
2013-06-15 01:21:00,61.9,53.1,29.76,WNW,290,0.0,5.0,73,0.00,,,0.00,WeatherCatV1.10B1784,2013-06-15 05:21:00,
2013-06-15 01:26:00,61.7,53.3,29.76,NNW,338,4.0,6.0,74,0.00,,,0.00,WeatherCatV1.10B1784,2013-06-15 05:26:00,
2013-06-15 01:31:00,61.7,53.3,29.76,WNW,285,4.0,4.0,74,0.00,,,0.00,WeatherCatV1.10B1784,2013-06-15 05:31:00,
2013-06-15 01:36:00,61.6,52.9,29.76,North,349,2.0,7.0,73,0.00,,,0.00,WeatherCatV1.10B1784,2013-06-15 05:36:00,
2013-06-15 01:41:00,61.6,52.9,29.76,West,276,0.0,8.0,73,0.00,,,0.00,WeatherCatV1.10B1784,2013-06-15 05:41:00,
2013-06-15 01:46:00,61.7,53.0,29.76,NNW,336,2.0,5.0,73,0.00,,,0.00,WeatherCatV1.10B1784,2013-06-15 05:46:00,
2013-06-15 01:51:00,61.6,52.9,29.76,NW,308,0.0,1.0,73,0.00,,,0.00,WeatherCatV1.10B1784,2013-06-15 05:51:00,
2013-06-15 01:56:00,61.4,53.0,29.76,NNW,335,2.0,4.0,74,0.00,,,0.00,WeatherCatV1.10B1784,2013-06-15 05:56:00,
2013-06-15 02:00:00,61.3,52.6,29.76,WNW,286,2.0,5.0,73,0.00,,,0.00,WeatherCatV1.10B1784,2013-06-15 06:00:00,
2013-06-15 02:05:00,61.4,52.7,29.76,NW,304,0.0,6.0,73,0.00,,,0.00,WeatherCatV1.10B1784,2013-06-15 06:05:00,
2013-06-15 02:10:00,61.4,52.7,29.77,WNW,290,0.0,4.0,73,0.00,,,0.00,WeatherCatV1.10B1784,2013-06-15 06:10:00,
2013-06-15 02:15:00,61.4,53.0,29.77,NW,308,0.0,3.0,74,0.00,,,0.00,WeatherCatV1.10B1784,2013-06-15 06:15:00,
2013-06-15 02:20:00,61.3,52.6,29.77,NW,307,0.0,3.0,73,0.00,,,0.00,WeatherCatV1.10B1784,2013-06-15 06:20:00,
2013-06-15 02:25:00,61.3,52.6,29.77,NW,320,2.0,3.0,73,0.00,,,0.00,WeatherCatV1.10B1784,2013-06-15 06:25:00,
2013-06-15 02:30:00,61.1,52.4,29.77,NW,312,0.0,3.0,73,0.00,,,0.00,WeatherCatV1.10B1784,2013-06-15 06:30:00,
2013-06-15 02:35:00,60.9,52.6,29.77,WNW,286,2.0,3.0,74,0.00,,,0.00,WeatherCatV1.10B1784,2013-06-15 06:35:00,
2013-06-15 02:40:00,60.9,52.2,29.78,West,280,2.0,5.0,73,0.00,,,0.00,WeatherCatV1.10B1784,2013-06-15 06:40:00,
2013-06-15 02:45:00,60.9,51.8,29.78,WNW,285,4.0,4.0,72,0.00,,,0.00,WeatherCatV1.10B1784,2013-06-15 06:45:00,
2013-06-15 02:50:00,61.0,51.9,29.78,WNW,286,2.0,6.0,72,0.00,,,0.00,WeatherCatV1.10B1784,2013-06-15 06:50:00,
2013-06-15 02:55:00,61.0,51.5,29.78,NW,315,0.0,4.0,71,0.00,,,0.00,WeatherCatV1.10B1784,2013-06-15 06:55:00,
2013-06-15 03:00:00,60.9,51.4,29.78,NW,312,1.0,4.0,71,0.00,,,0.00,WeatherCatV1.10B1784,2013-06-15 07:00:00,
2013-06-15 03:05:00,60.7,51.2,29.78,NW,312,1.0,5.0,71,0.00,,,0.00,WeatherCatV1.10B1784,2013-06-15 07:05:00,
2013-06-15 03:10:00,60.6,51.1,29.79,WNW,294,0.0,5.0,71,0.00,,,0.00,WeatherCatV1.10B1784,2013-06-15 07:10:00,
2013-06-15 03:15:00,60.5,51.0,29.79,WSW,237,1.0,1.0,71,0.00,,,0.00,WeatherCatV1.10B1784,2013-06-15 07:15:00,
2013-06-15 03:20:00,60.5,51.0,29.79,WSW,244,2.0,6.0,71,0.00,,,0.00,WeatherCatV1.10B1784,2013-06-15 07:20:00,
2013-06-15 03:25:00,60.5,50.7,29.79,WNW,296,0.0,5.0,70,0.00,,,0.00,WeatherCatV1.10B1784,2013-06-15 07:25:00,
2013-06-15 03:30:00,60.4,50.2,29.79,WNW,289,0.0,5.0,69,0.00,,,0.00,WeatherCatV1.10B1784,2013-06-15 07:30:00,
2013-06-15 03:35:00,60.4,50.2,29.79,NW,313,0.0,3.0,69,0.00,,,0.00,WeatherCatV1.10B1784,2013-06-15 07:35:00,
2013-06-15 03:40:00,60.3,50.1,29.79,NW,310,0.0,3.0,69,0.00,,,0.00,WeatherCatV1.10B1784,2013-06-15 07:40:00,
2013-06-15 03:45:00,60.0,50.2,29.79,WNW,290,0.0,0.0,70,0.00,,,0.00,WeatherCatV1.10B1784,2013-06-15 07:45:00,
2013-06-15 03:50:00,59.8,50.0,29.80,NNW,329,2.0,4.0,70,0.00,,,0.00,WeatherCatV1.10B1784,2013-06-15 07:50:00,
2013-06-15 03:55:00,59.8,50.4,29.80,NW,325,0.0,2.0,71,0.00,,,0.00,WeatherCatV1.10B1784,2013-06-15 07:55:00,
2013-06-15 04:00:00,59.6,49.8,29.80,NW,323,1.0,1.0,70,0.00,,,0.00,WeatherCatV1.10B1784,2013-06-15 08:00:00,
2013-06-15 04:05:00,59.6,49.8,29.80,NW,323,1.0,3.0,70,0.00,,,0.00,WeatherCatV1.10B1784,2013-06-15 08:05:00,
2013-06-15 04:10:00,59.6,49.8,29.80,NW,315,4.0,4.0,70,0.00,,,0.00,WeatherCatV1.10B1784,2013-06-15 08:10:00,
2013-06-15 04:15:00,59.4,49.6,29.80,NNW,348,3.0,3.0,70,0.00,,,0.00,WeatherCatV1.10B1784,2013-06-15 08:15:00,
2013-06-15 04:20:00,59.3,49.1,29.80,NW,308,0.0,7.0,69,0.00,,,0.00,WeatherCatV1.10B1784,2013-06-15 08:20:00,
2013-06-15 04:25:00,59.4,49.2,29.80,NW,313,0.0,4.0,69,0.00,,,0.00,WeatherCatV1.10B1784,2013-06-15 08:25:00,
2013-06-15 04:30:00,59.4,49.2,29.81,NW,322,0.0,5.0,69,0.00,,,0.00,WeatherCatV1.10B1784,2013-06-15 08:30:00,
2013-06-15 04:35:00,59.3,49.1,29.81,WNW,297,1.0,2.0,69,0.00,,,0.00,WeatherCatV1.10B1784,2013-06-15 08:35:00,
2013-06-15 04:40:00,59.1,48.9,29.81,WNW,296,0.0,4.0,69,0.00,,,0.00,WeatherCatV1.10B1784,2013-06-15 08:40:00,
2013-06-15 04:45:00,59.0,48.5,29.81,West,277,1.0,5.0,68,0.00,,,0.00,WeatherCatV1.10B1784,2013-06-15 08:45:00,
2013-06-15 04:50:00,58.9,48.7,29.81,North,3,1.0,5.0,69,0.00,,,0.00,WeatherCatV1.10B1784,2013-06-15 08:50:00,
2013-06-15 04:55:00,58.7,48.6,29.82,NNW,338,1.0,4.0,69,0.00,,,0.00,WeatherCatV1.10B1784,2013-06-15 08:55:00,
2013-06-15 05:00:00,58.6,48.5,29.82,WNW,294,0.0,3.0,69,0.00,,,0.00,WeatherCatV1.10B1784,2013-06-15 09:00:00,
2013-06-15 05:05:00,58.3,48.2,29.82,NW,304,0.0,3.0,69,0.00,,,0.00,WeatherCatV1.10B1784,2013-06-15 09:05:00,
2013-06-15 05:10:00,58.3,48.2,29.82,NW,304,0.0,0.0,69,0.00,,,0.00,WeatherCatV1.10B1784,2013-06-15 09:10:00,
2013-06-15 05:15:00,58.3,48.2,29.82,WSW,257,0.0,6.0,69,0.00,,,0.00,WeatherCatV1.10B1784,2013-06-15 09:15:00,
2013-06-15 05:20:00,58.2,48.5,29.83,WSW,257,0.0,1.0,70,0.00,,,0.00,WeatherCatV1.10B1784,2013-06-15 09:20:00,
2013-06-15 05:25:00,58.1,48.7,29.83,NW,325,0.0,1.0,71,0.00,,,0.00,WeatherCatV1.10B1784,2013-06-15 09:25:00,
2013-06-15 05:30:00,58.0,47.9,29.83,WNW,302,1.0,7.0,69,0.00,,,0.00,WeatherCatV1.10B1784,2013-06-15 09:30:00,
2013-06-15 05:32:00,58.1,48.4,29.83,NW,308,3.0,5.0,70,0.00,,,0.00,WeatherCatV1.10B1784,2013-06-15 09:32:00,
2013-06-15 05:37:00,58.1,48.0,29.84,NW,315,1.0,3.0,69,0.00,,,0.00,WeatherCatV1.10B1784,2013-06-15 09:37:00,
2013-06-15 05:42:00,58.2,47.7,29.84,WNW,295,3.0,3.0,68,0.00,,,0.00,WeatherCatV1.10B1784,2013-06-15 09:42:00,
2013-06-15 05:47:00,58.2,47.7,29.84,NW,321,1.0,5.0,68,0.00,,,0.00,WeatherCatV1.10B1784,2013-06-15 09:47:00,
2013-06-15 05:52:00,58.3,48.2,29.84,NW,324,0.0,5.0,69,0.00,,,0.00,WeatherCatV1.10B1784,2013-06-15 09:52:00,
2013-06-15 05:57:00,58.2,48.5,29.84,NW,307,0.0,5.0,70,0.00,,,0.00,WeatherCatV1.10B1784,2013-06-15 09:57:00,
2013-06-15 06:02:00,58.0,48.3,29.84,WNW,303,7.0,7.0,70,0.00,,,0.00,WeatherCatV1.10B1784,2013-06-15 10:02:00,
2013-06-15 06:07:00,58.0,48.3,29.84,WNW,292,0.0,3.0,70,0.00,,,0.00,WeatherCatV1.10B1784,2013-06-15 10:07:00,
2013-06-15 06:12:00,58.2,47.7,29.85,NNW,341,1.0,7.0,68,0.00,,,0.00,WeatherCatV1.10B1784,2013-06-15 10:12:00,
2013-06-15 06:17:00,58.4,47.9,29.85,WNW,302,3.0,3.0,68,0.00,,,0.00,WeatherCatV1.10B1784,2013-06-15 10:17:00,
2013-06-15 06:22:00,58.5,48.0,29.85,WNW,297,0.0,4.0,68,0.00,,,0.00,WeatherCatV1.10B1784,2013-06-15 10:22:00,
2013-06-15 06:27:00,58.6,48.1,29.85,WNW,292,0.0,8.0,68,0.00,,,0.00,WeatherCatV1.10B1784,2013-06-15 10:27:00,
2013-06-15 06:32:00,58.7,48.2,29.85,West,277,3.0,3.0,68,0.00,,,0.00,WeatherCatV1.10B1784,2013-06-15 10:32:00,
2013-06-15 06:37:00,58.8,48.3,29.85,West,275,0.0,2.0,68,0.00,,,0.00,WeatherCatV1.10B1784,2013-06-15 10:37:00,
2013-06-15 06:42:00,59.0,48.5,29.85,NW,313,0.0,0.0,68,0.00,,,0.00,WeatherCatV1.10B1784,2013-06-15 10:42:00,
2013-06-15 06:47:00,59.1,48.5,29.86,WNW,294,0.0,2.0,68,0.00,,,0.00,WeatherCatV1.10B1784,2013-06-15 10:47:00,
2013-06-15 06:52:00,59.4,49.2,29.86,WNW,295,0.0,5.0,69,0.00,,,0.00,WeatherCatV1.10B1784,2013-06-15 10:52:00,
2013-06-15 06:57:00,59.6,49.0,29.86,WNW,302,0.0,2.0,68,0.00,,,0.00,WeatherCatV1.10B1784,2013-06-15 10:57:00,
2013-06-15 07:02:00,59.9,48.9,29.86,WNW,296,1.0,3.0,67,0.00,,,0.00,WeatherCatV1.10B1784,2013-06-15 11:02:00,
2013-06-15 07:07:00,60.0,48.6,29.86,West,267,2.0,5.0,66,0.00,,,0.00,WeatherCatV1.10B1784,2013-06-15 11:07:00,
2013-06-15 07:12:00,60.3,49.3,29.86,NNW,331,2.0,2.0,67,0.00,,,0.00,WeatherCatV1.10B1784,2013-06-15 11:12:00,
2013-06-15 07:17:00,60.6,48.8,29.86,SW,230,1.0,4.0,65,0.00,,,0.00,WeatherCatV1.10B1784,2013-06-15 11:17:00,
2013-06-15 07:22:00,60.9,49.5,29.86,West,280,0.0,5.0,66,0.00,,,0.00,WeatherCatV1.10B1784,2013-06-15 11:22:00,
2013-06-15 07:27:00,61.2,48.5,29.86,West,280,1.0,7.0,63,0.00,,,0.00,WeatherCatV1.10B1784,2013-06-15 11:27:00,
2013-06-15 07:32:00,61.3,49.0,29.86,West,278,0.0,5.0,64,0.00,,,0.00,WeatherCatV1.10B1784,2013-06-15 11:32:00,
2013-06-15 07:37:00,61.6,49.7,29.87,WNW,289,0.0,3.0,65,0.00,,,0.00,WeatherCatV1.10B1784,2013-06-15 11:37:00,
2013-06-15 07:42:00,62.0,48.8,29.87,WNW,292,0.0,3.0,62,0.00,,,0.00,WeatherCatV1.10B1784,2013-06-15 11:42:00,
2013-06-15 07:47:00,62.2,49.0,29.87,WNW,291,0.0,0.0,62,0.00,,,0.00,WeatherCatV1.10B1784,2013-06-15 11:47:00,
2013-06-15 07:52:00,62.5,48.9,29.87,NW,315,2.0,4.0,61,0.00,,,0.00,WeatherCatV1.10B1784,2013-06-15 11:52:00,
2013-06-15 07:57:00,62.9,50.5,29.88,West,262,0.0,1.0,64,0.00,,,0.00,WeatherCatV1.10B1784,2013-06-15 11:57:00,
2013-06-15 08:02:00,62.9,48.8,29.88,West,271,0.0,3.0,60,0.00,,,0.00,WeatherCatV1.10B1784,2013-06-15 12:02:00,
2013-06-15 08:07:00,63.4,50.1,29.88,NNW,336,0.0,2.0,62,0.00,,,0.00,WeatherCatV1.10B1784,2013-06-15 12:07:00,
2013-06-15 08:12:00,63.7,49.5,29.88,WSW,250,0.0,2.0,60,0.00,,,0.00,WeatherCatV1.10B1784,2013-06-15 12:12:00,
2013-06-15 08:17:00,64.0,48.9,29.88,WSW,257,0.0,6.0,58,0.00,,,0.00,WeatherCatV1.10B1784,2013-06-15 12:17:00,
2013-06-15 08:22:00,64.4,50.2,29.88,NNW,331,0.0,0.0,60,0.00,,,0.00,WeatherCatV1.10B1784,2013-06-15 12:22:00,
2013-06-15 08:27:00,64.8,51.9,29.88,NW,320,0.0,1.0,63,0.00,,,0.00,WeatherCatV1.10B1784,2013-06-15 12:27:00,
2013-06-15 08:32:00,65.3,50.1,29.88,SW,229,0.0,3.0,58,0.00,,,0.00,WeatherCatV1.10B1784,2013-06-15 12:32:00,
2013-06-15 08:37:00,65.6,49.9,29.89,WNW,302,1.0,3.0,57,0.00,,,0.00,WeatherCatV1.10B1784,2013-06-15 12:37:00,
2013-06-15 08:42:00,66.0,49.4,29.89,WNW,302,0.0,0.0,55,0.00,,,0.00,WeatherCatV1.10B1784,2013-06-15 12:42:00,
2013-06-15 08:47:00,66.4,50.7,29.89,WNW,301,0.0,0.0,57,0.00,,,0.00,WeatherCatV1.10B1784,2013-06-15 12:47:00,
2013-06-15 08:52:00,66.8,49.1,29.89,WNW,302,0.0,4.0,53,0.00,,,0.00,WeatherCatV1.10B1784,2013-06-15 12:52:00,
2013-06-15 08:57:00,67.0,49.8,29.89,WNW,302,0.0,1.0,54,0.00,,,0.00,WeatherCatV1.10B1784,2013-06-15 12:57:00,
2013-06-15 09:02:00,67.3,49.1,29.89,WNW,302,0.0,0.0,52,0.00,,,0.00,WeatherCatV1.10B1784,2013-06-15 13:02:00,
2013-06-15 09:07:00,67.6,50.4,29.89,WNW,302,0.0,1.0,54,0.00,,,0.00,WeatherCatV1.10B1784,2013-06-15 13:07:00,
2013-06-15 09:12:00,67.8,51.0,29.89,NNW,338,2.0,2.0,55,0.00,,,0.00,WeatherCatV1.10B1784,2013-06-15 13:12:00,
2013-06-15 09:17:00,68.1,51.8,29.90,West,262,0.0,5.0,56,0.00,,,0.00,WeatherCatV1.10B1784,2013-06-15 13:17:00,
2013-06-15 09:22:00,67.9,50.6,29.89,WNW,300,3.0,4.0,54,0.00,,,0.00,WeatherCatV1.10B1784,2013-06-15 13:22:00,
2013-06-15 09:27:00,67.9,50.1,29.89,WNW,289,0.0,1.0,53,0.00,,,0.00,WeatherCatV1.10B1784,2013-06-15 13:27:00,
2013-06-15 09:32:00,68.1,48.2,29.89,WNW,292,0.0,2.0,49,0.00,,,0.00,WeatherCatV1.10B1784,2013-06-15 13:32:00,
2013-06-15 09:37:00,68.4,50.6,29.89,WNW,292,0.0,1.0,53,0.00,,,0.00,WeatherCatV1.10B1784,2013-06-15 13:37:00,
2013-06-15 09:42:00,69.0,51.1,29.89,WNW,292,0.0,1.0,53,0.00,,,0.00,WeatherCatV1.10B1784,2013-06-15 13:42:00,
2013-06-15 09:47:00,69.0,50.1,29.89,WNW,292,0.0,2.0,51,0.00,,,0.00,WeatherCatV1.10B1784,2013-06-15 13:47:00,
2013-06-15 09:52:00,69.0,47.3,29.89,SW,228,8.0,8.0,46,0.00,,,0.00,WeatherCatV1.10B1784,2013-06-15 13:52:00,
2013-06-15 09:57:00,68.8,49.4,29.89,WNW,290,1.0,4.0,50,0.00,,,0.00,WeatherCatV1.10B1784,2013-06-15 13:57:00,
2013-06-15 10:02:00,69.0,47.9,29.89,SW,225,7.0,8.0,47,0.00,,,0.00,WeatherCatV1.10B1784,2013-06-15 14:02:00,
2013-06-15 10:07:00,68.8,51.0,29.89,WSW,241,1.0,1.0,53,0.00,,,0.00,WeatherCatV1.10B1784,2013-06-15 14:07:00,
2013-06-15 10:12:00,68.9,47.8,29.89,SW,225,1.0,6.0,47,0.00,,,0.00,WeatherCatV1.10B1784,2013-06-15 14:12:00,
2013-06-15 10:17:00,69.0,51.1,29.89,WSW,257,0.0,5.0,53,0.00,,,0.00,WeatherCatV1.10B1784,2013-06-15 14:17:00,
2013-06-15 10:22:00,69.5,47.2,29.89,NNW,337,0.0,3.0,45,0.00,,,0.00,WeatherCatV1.10B1784,2013-06-15 14:22:00,
2013-06-15 10:27:00,69.8,49.2,29.89,NW,314,0.0,3.0,48,0.00,,,0.00,WeatherCatV1.10B1784,2013-06-15 14:27:00,
2013-06-15 10:32:00,70.0,48.8,29.89,NW,319,0.0,3.0,47,0.00,,,0.00,WeatherCatV1.10B1784,2013-06-15 14:32:00,
2013-06-15 10:37:00,70.3,47.9,29.89,West,262,3.0,6.0,45,0.00,,,0.00,WeatherCatV1.10B1784,2013-06-15 14:37:00,
2013-06-15 10:42:00,70.4,48.0,29.89,WSW,252,0.0,6.0,45,0.00,,,0.00,WeatherCatV1.10B1784,2013-06-15 14:42:00,
2013-06-15 10:47:00,70.2,48.4,29.89,SW,230,0.0,8.0,46,0.00,,,0.00,WeatherCatV1.10B1784,2013-06-15 14:47:00,
2013-06-15 10:52:00,70.5,49.9,29.89,NNW,327,1.0,4.0,48,0.00,,,0.00,WeatherCatV1.10B1784,2013-06-15 14:52:00,
2013-06-15 10:57:00,70.4,48.0,29.89,West,271,1.0,4.0,45,0.00,,,0.00,WeatherCatV1.10B1784,2013-06-15 14:57:00,
2013-06-15 11:02:00,70.5,49.3,29.89,SW,231,1.0,1.0,47,0.00,,,0.00,WeatherCatV1.10B1784,2013-06-15 15:02:00,
2013-06-15 11:07:00,71.0,49.7,29.89,NW,323,0.0,3.0,47,0.00,,,0.00,WeatherCatV1.10B1784,2013-06-15 15:07:00,
2013-06-15 11:12:00,71.2,48.2,29.89,NNW,345,2.0,4.0,44,0.00,,,0.00,WeatherCatV1.10B1784,2013-06-15 15:12:00,
2013-06-15 11:17:00,70.8,48.4,29.89,West,281,2.0,5.0,45,0.00,,,0.00,WeatherCatV1.10B1784,2013-06-15 15:17:00,
2013-06-15 11:22:00,70.8,48.4,29.89,WSW,257,2.0,7.0,45,0.00,,,0.00,WeatherCatV1.10B1784,2013-06-15 15:22:00,
2013-06-15 11:27:00,70.6,46.4,29.89,West,267,1.0,4.0,42,0.00,,,0.00,WeatherCatV1.10B1784,2013-06-15 15:27:00,
2013-06-15 11:32:00,71.1,51.0,29.89,SW,236,0.0,1.0,49,0.00,,,0.00,WeatherCatV1.10B1784,2013-06-15 15:32:00,
2013-06-15 11:37:00,71.3,48.8,29.89,WSW,246,0.0,4.0,45,0.00,,,0.00,WeatherCatV1.10B1784,2013-06-15 15:37:00,
2013-06-15 11:42:00,71.3,47.0,29.88,SW,227,0.0,6.0,42,0.00,,,0.00,WeatherCatV1.10B1784,2013-06-15 15:42:00,
2013-06-15 11:47:00,71.5,45.9,29.89,WSW,247,1.0,7.0,40,0.00,,,0.00,WeatherCatV1.10B1784,2013-06-15 15:47:00,
2013-06-15 11:52:00,71.5,45.9,29.88,West,262,0.0,5.0,40,0.00,,,0.00,WeatherCatV1.10B1784,2013-06-15 15:52:00,
2013-06-15 11:57:00,71.8,48.7,29.89,WSW,257,0.0,5.0,44,0.00,,,0.00,WeatherCatV1.10B1784,2013-06-15 15:57:00,
2013-06-15 12:02:00,71.6,45.3,29.89,WSW,249,3.0,5.0,39,0.00,,,0.00,WeatherCatV1.10B1784,2013-06-15 16:02:00,
2013-06-15 12:07:00,72.0,48.9,29.89,West,275,2.0,3.0,44,0.00,,,0.01,WeatherCatV1.10B1784,2013-06-15 16:07:00,
2013-06-15 12:12:00,72.1,47.7,29.89,West,267,2.0,9.0,42,0.00,,,0.01,WeatherCatV1.10B1784,2013-06-15 16:12:00,
2013-06-15 12:17:00,72.4,48.6,29.89,NE,48,0.0,5.0,43,0.00,,,0.01,WeatherCatV1.10B1784,2013-06-15 16:17:00,
2013-06-15 12:22:00,72.5,47.4,29.88,ENE,58,1.0,2.0,41,0.00,,,0.01,WeatherCatV1.10B1784,2013-06-15 16:22:00,
2013-06-15 12:27:00,72.8,48.4,29.88,WNW,290,0.0,4.0,42,0.00,,,0.01,WeatherCatV1.10B1784,2013-06-15 16:27:00,
2013-06-15 12:32:00,72.9,47.8,29.88,WSW,242,0.0,2.0,41,0.00,,,0.01,WeatherCatV1.10B1784,2013-06-15 16:32:00,
2013-06-15 12:37:00,73.3,49.4,29.88,NW,325,0.0,3.0,43,0.00,,,0.01,WeatherCatV1.10B1784,2013-06-15 16:37:00,
2013-06-15 12:42:00,73.5,50.2,29.88,NW,320,0.0,1.0,44,0.00,,,0.01,WeatherCatV1.10B1784,2013-06-15 16:42:00,
2013-06-15 12:47:00,73.3,46.8,29.88,SW,219,0.0,4.0,39,0.00,,,0.01,WeatherCatV1.10B1784,2013-06-15 16:47:00,
2013-06-15 12:52:00,72.9,48.4,29.88,WNW,296,0.0,11.0,42,0.00,,,0.01,WeatherCatV1.10B1784,2013-06-15 16:52:00,
2013-06-15 12:57:00,72.8,45.7,29.88,WSW,237,2.0,6.0,38,0.00,,,0.01,WeatherCatV1.10B1784,2013-06-15 16:57:00,
2013-06-15 13:02:00,73.1,48.6,29.88,WNW,294,1.0,3.0,42,0.00,,,0.01,WeatherCatV1.10B1784,2013-06-15 17:02:00,
2013-06-15 13:07:00,73.7,51.6,29.88,NW,318,2.0,3.0,46,0.00,,,0.01,WeatherCatV1.10B1784,2013-06-15 17:07:00,
2013-06-15 13:12:00,74.2,48.3,29.88,WNW,294,0.0,3.0,40,0.00,,,0.01,WeatherCatV1.10B1784,2013-06-15 17:12:00,
2013-06-15 13:17:00,74.2,46.2,29.87,WSW,257,0.0,7.0,37,0.00,,,0.01,WeatherCatV1.10B1784,2013-06-15 17:17:00,
2013-06-15 13:22:00,74.2,46.2,29.87,WSW,257,0.0,5.0,37,0.00,,,0.01,WeatherCatV1.10B1784,2013-06-15 17:22:00,
2013-06-15 13:27:00,74.3,47.0,29.87,SW,231,5.0,6.0,38,0.00,,,0.01,WeatherCatV1.10B1784,2013-06-15 17:27:00,
2013-06-15 13:32:00,74.4,47.8,29.87,WNW,292,1.0,3.0,39,0.00,,,0.01,WeatherCatV1.10B1784,2013-06-15 17:32:00,
2013-06-15 13:37:00,74.7,49.4,29.87,WSW,237,3.0,5.0,41,0.00,,,0.01,WeatherCatV1.10B1784,2013-06-15 17:37:00,
2013-06-15 13:42:00,74.5,42.7,29.87,WSW,248,0.0,6.0,32,0.00,,,0.01,WeatherCatV1.10B1784,2013-06-15 17:42:00,
2013-06-15 13:47:00,74.6,44.4,29.87,NNW,340,5.0,5.0,34,0.00,,,0.01,WeatherCatV1.10B1784,2013-06-15 17:47:00,
2013-06-15 13:52:00,74.6,46.6,29.87,NW,304,1.0,3.0,37,0.00,,,0.01,WeatherCatV1.10B1784,2013-06-15 17:52:00,
2013-06-15 13:57:00,74.9,44.6,29.87,WSW,257,1.0,7.0,34,0.00,,,0.01,WeatherCatV1.10B1784,2013-06-15 17:57:00,
2013-06-15 14:02:00,74.9,49.6,29.87,WNW,296,1.0,1.0,41,0.00,,,0.01,WeatherCatV1.10B1784,2013-06-15 18:02:00,
2013-06-15 14:07:00,74.7,42.0,29.87,WSW,250,0.0,7.0,31,0.00,,,0.01,WeatherCatV1.10B1784,2013-06-15 18:07:00,
2013-06-15 14:12:00,74.8,44.5,29.87,WSW,249,0.0,6.0,34,0.00,,,0.01,WeatherCatV1.10B1784,2013-06-15 18:12:00,
2013-06-15 14:17:00,75.1,44.0,29.86,NW,321,0.0,9.0,33,0.00,,,0.01,WeatherCatV1.10B1784,2013-06-15 18:17:00,
2013-06-15 14:22:00,75.7,46.8,29.86,South,169,0.0,4.0,36,0.00,,,0.01,WeatherCatV1.10B1784,2013-06-15 18:22:00,
2013-06-15 14:27:00,75.9,44.7,29.86,WNW,297,1.0,2.0,33,0.00,,,0.01,WeatherCatV1.10B1784,2013-06-15 18:27:00,
2013-06-15 14:32:00,76.2,46.5,29.85,WSW,240,0.0,5.0,35,0.00,,,0.01,WeatherCatV1.10B1784,2013-06-15 18:32:00,
2013-06-15 14:37:00,76.2,45.8,29.86,West,277,4.0,11.0,34,0.00,,,0.01,WeatherCatV1.10B1784,2013-06-15 18:37:00,
2013-06-15 14:42:00,76.4,48.2,29.85,NNE,17,4.0,4.0,37,0.00,,,0.01,WeatherCatV1.10B1784,2013-06-15 18:42:00,
2013-06-15 14:47:00,76.4,45.9,29.85,WSW,248,0.0,3.0,34,0.00,,,0.01,WeatherCatV1.10B1784,2013-06-15 18:47:00,
2013-06-15 14:53:00,76.7,46.2,29.85,NNW,336,9.0,9.0,34,0.00,,,0.01,WeatherCatV1.10B1784,2013-06-15 18:53:00,
2013-06-15 14:58:00,76.3,45.1,29.85,NW,306,0.0,2.0,33,0.00,,,0.01,WeatherCatV1.10B1784,2013-06-15 18:58:00,
2013-06-15 15:03:00,76.4,44.3,29.85,West,267,3.0,11.0,32,0.00,,,0.01,WeatherCatV1.10B1784,2013-06-15 19:03:00,
2013-06-15 15:08:00,76.5,47.5,29.84,North,354,2.0,6.0,36,0.00,,,0.01,WeatherCatV1.10B1784,2013-06-15 19:08:00,
2013-06-15 15:13:00,76.4,45.9,29.84,West,262,0.0,7.0,34,0.00,,,0.01,WeatherCatV1.10B1784,2013-06-15 19:13:00,
2013-06-15 15:18:00,76.1,44.9,29.84,SW,221,1.0,7.0,33,0.00,,,0.01,WeatherCatV1.10B1784,2013-06-15 19:18:00,
2013-06-15 15:23:00,76.3,45.1,29.84,NW,308,9.0,9.0,33,0.00,,,0.01,WeatherCatV1.10B1784,2013-06-15 19:23:00,
2013-06-15 15:28:00,76.2,45.0,29.84,WNW,294,0.0,5.0,33,0.00,,,0.01,WeatherCatV1.10B1784,2013-06-15 19:28:00,
2013-06-15 15:33:00,76.4,45.1,29.84,WSW,246,0.0,0.0,33,0.00,,,0.01,WeatherCatV1.10B1784,2013-06-15 19:33:00,
2013-06-15 15:38:00,77.4,48.3,29.84,WSW,249,1.0,3.0,36,0.00,,,0.01,WeatherCatV1.10B1784,2013-06-15 19:38:00,
2013-06-15 15:43:00,76.9,45.6,29.84,West,273,0.0,12.0,33,0.00,,,0.01,WeatherCatV1.10B1784,2013-06-15 19:43:00,
2013-06-15 15:48:00,76.7,45.4,29.84,West,277,2.0,8.0,33,0.00,,,0.01,WeatherCatV1.10B1784,2013-06-15 19:48:00,
2013-06-15 15:53:00,76.4,44.3,29.84,North,355,0.0,3.0,32,0.00,,,0.01,WeatherCatV1.10B1784,2013-06-15 19:53:00,
2013-06-15 15:58:00,76.7,44.6,29.84,WSW,257,0.0,1.0,32,0.00,,,0.01,WeatherCatV1.10B1784,2013-06-15 19:58:00,
2013-06-15 16:03:00,77.7,49.3,29.84,West,267,0.0,3.0,37,0.00,,,0.01,WeatherCatV1.10B1784,2013-06-15 20:03:00,
2013-06-15 16:08:00,77.4,44.4,29.84,NNW,331,5.0,11.0,31,0.00,,,0.01,WeatherCatV1.10B1784,2013-06-15 20:08:00,
2013-06-15 16:13:00,76.6,44.5,29.84,NW,311,1.0,8.0,32,0.00,,,0.01,WeatherCatV1.10B1784,2013-06-15 20:13:00,
2013-06-15 16:18:00,76.5,45.2,29.84,West,271,1.0,4.0,33,0.00,,,0.01,WeatherCatV1.10B1784,2013-06-15 20:18:00,
2013-06-15 16:23:00,77.1,44.9,29.84,SW,226,5.0,6.0,32,0.00,,,0.01,WeatherCatV1.10B1784,2013-06-15 20:23:00,
2013-06-15 16:28:00,77.1,47.3,29.84,WSW,246,6.0,6.0,35,0.00,,,0.01,WeatherCatV1.10B1784,2013-06-15 20:28:00,
2013-06-15 16:33:00,77.4,46.0,29.84,West,279,0.0,1.0,33,0.00,,,0.01,WeatherCatV1.10B1784,2013-06-15 20:33:00,
2013-06-15 16:38:00,77.3,46.7,29.84,West,277,4.0,4.0,34,0.00,,,0.01,WeatherCatV1.10B1784,2013-06-15 20:38:00,
2013-06-15 16:43:00,77.5,45.3,29.84,WSW,252,0.0,5.0,32,0.00,,,0.01,WeatherCatV1.10B1784,2013-06-15 20:43:00,
2013-06-15 16:48:00,77.2,44.2,29.84,NW,305,3.0,4.0,31,0.00,,,0.01,WeatherCatV1.10B1784,2013-06-15 20:48:00,
2013-06-15 16:53:00,76.9,45.6,29.84,NW,308,0.0,7.0,33,0.00,,,0.01,WeatherCatV1.10B1784,2013-06-15 20:53:00,
2013-06-15 16:58:00,76.9,45.6,29.84,SW,235,1.0,11.0,33,0.00,,,0.01,WeatherCatV1.10B1784,2013-06-15 20:58:00,
2013-06-15 17:03:00,76.6,43.7,29.84,ESE,114,0.0,7.0,31,0.00,,,0.01,WeatherCatV1.10B1784,2013-06-15 21:03:00,
2013-06-15 17:08:00,76.5,43.6,29.84,NNW,330,1.0,5.0,31,0.00,,,0.01,WeatherCatV1.10B1784,2013-06-15 21:08:00,
2013-06-15 17:13:00,76.1,44.9,29.83,WSW,238,8.0,8.0,33,0.00,,,0.01,WeatherCatV1.10B1784,2013-06-15 21:13:00,
2013-06-15 17:18:00,76.0,44.0,29.84,North,4,4.0,4.0,32,0.00,,,0.01,WeatherCatV1.10B1784,2013-06-15 21:18:00,
2013-06-15 17:23:00,76.1,44.9,29.84,West,277,0.0,2.0,33,0.00,,,0.01,WeatherCatV1.10B1784,2013-06-15 21:23:00,
2013-06-15 17:28:00,76.4,44.3,29.84,SW,229,0.0,0.0,32,0.00,,,0.01,WeatherCatV1.10B1784,2013-06-15 21:28:00,
2013-06-15 17:33:00,76.6,45.3,29.84,WSW,244,0.0,3.0,33,0.00,,,0.01,WeatherCatV1.10B1784,2013-06-15 21:33:00,
2013-06-15 17:38:00,77.1,47.3,29.84,WSW,244,0.0,2.0,35,0.00,,,0.01,WeatherCatV1.10B1784,2013-06-15 21:38:00,
2013-06-15 17:43:00,77.2,46.6,29.84,West,267,0.0,3.0,34,0.00,,,0.01,WeatherCatV1.10B1784,2013-06-15 21:43:00,
2013-06-15 17:48:00,76.5,46.0,29.84,WNW,292,0.0,2.0,34,0.00,,,0.01,WeatherCatV1.10B1784,2013-06-15 21:48:00,
2013-06-15 17:53:00,76.5,48.3,29.84,NNW,344,0.0,6.0,37,0.00,,,0.01,WeatherCatV1.10B1784,2013-06-15 21:53:00,
2013-06-15 17:58:00,76.0,47.1,29.84,WSW,257,7.0,7.0,36,0.00,,,0.01,WeatherCatV1.10B1784,2013-06-15 21:58:00,
2013-06-15 18:03:00,76.0,47.8,29.84,West,277,0.0,2.0,37,0.00,,,0.01,WeatherCatV1.10B1784,2013-06-15 22:03:00,
2013-06-15 18:08:00,75.6,48.2,29.85,WSW,257,0.0,7.0,38,0.00,,,0.01,WeatherCatV1.10B1784,2013-06-15 22:08:00,
2013-06-15 18:13:00,75.3,47.2,29.85,SW,233,0.0,6.0,37,0.00,,,0.01,WeatherCatV1.10B1784,2013-06-15 22:13:00,
2013-06-15 18:18:00,75.4,48.0,29.84,WSW,257,0.0,2.0,38,0.00,,,0.01,WeatherCatV1.10B1784,2013-06-15 22:18:00,
2013-06-15 18:23:00,75.4,47.3,29.84,WNW,297,0.0,5.0,37,0.00,,,0.01,WeatherCatV1.10B1784,2013-06-15 22:23:00,
2013-06-15 18:28:00,75.5,48.8,29.84,WNW,297,0.0,1.0,39,0.00,,,0.01,WeatherCatV1.10B1784,2013-06-15 22:28:00,
2013-06-15 18:33:00,75.0,48.3,29.84,WNW,302,0.0,0.0,39,0.00,,,0.01,WeatherCatV1.10B1784,2013-06-15 22:33:00,
2013-06-15 18:38:00,74.4,47.1,29.84,WNW,302,0.0,2.0,38,0.00,,,0.01,WeatherCatV1.10B1784,2013-06-15 22:38:00,
2013-06-15 18:43:00,74.1,48.2,29.84,WNW,302,0.0,1.0,40,0.00,,,0.01,WeatherCatV1.10B1784,2013-06-15 22:43:00,
2013-06-15 18:48:00,73.6,49.1,29.84,West,267,0.0,0.0,42,0.00,,,0.01,WeatherCatV1.10B1784,2013-06-15 22:48:00,
2013-06-15 18:53:00,73.0,47.2,29.84,West,273,0.0,0.0,40,0.00,,,0.01,WeatherCatV1.10B1784,2013-06-15 22:53:00,
2013-06-15 18:58:00,72.7,48.3,29.84,West,273,0.0,0.0,42,0.00,,,0.01,WeatherCatV1.10B1784,2013-06-15 22:58:00,
2013-06-15 19:03:00,72.8,49.0,29.84,West,273,0.0,0.0,43,0.00,,,0.01,WeatherCatV1.10B1784,2013-06-15 23:03:00,
2013-06-15 19:08:00,72.9,49.1,29.85,West,273,0.0,0.0,43,0.00,,,0.01,WeatherCatV1.10B1784,2013-06-15 23:08:00,
2013-06-15 19:13:00,72.6,50.0,29.85,West,273,0.0,0.0,45,0.00,,,0.01,WeatherCatV1.10B1784,2013-06-15 23:13:00,
2013-06-15 19:18:00,72.5,49.9,29.85,West,273,0.0,0.0,45,0.00,,,0.01,WeatherCatV1.10B1784,2013-06-15 23:18:00,
2013-06-15 19:23:00,72.2,52.5,29.85,West,273,0.0,0.0,50,0.00,,,0.01,WeatherCatV1.10B1784,2013-06-15 23:23:00,
2013-06-15 19:28:00,71.8,53.7,29.85,West,273,0.0,0.0,53,0.00,,,0.01,WeatherCatV1.10B1784,2013-06-15 23:28:00,
2013-06-15 19:33:00,71.2,53.7,29.85,West,273,0.0,0.0,54,0.00,,,0.01,WeatherCatV1.10B1784,2013-06-15 23:33:00,
2013-06-15 19:38:00,70.7,53.7,29.85,West,273,0.0,0.0,55,0.00,,,0.01,WeatherCatV1.10B1784,2013-06-15 23:38:00,
2013-06-15 19:43:00,69.8,54.8,29.84,West,273,0.0,0.0,59,0.00,,,0.01,WeatherCatV1.10B1784,2013-06-15 23:43:00,
2013-06-15 19:48:00,68.6,55.0,29.85,West,273,0.0,0.0,62,0.00,,,0.01,WeatherCatV1.10B1784,2013-06-15 23:48:00,
2013-06-15 19:53:00,67.8,56.4,29.85,West,273,0.0,0.0,67,0.00,,,0.01,WeatherCatV1.10B1784,2013-06-15 23:53:00,
2013-06-15 19:58:00,66.9,56.4,29.85,West,273,0.0,0.0,69,0.00,,,0.01,WeatherCatV1.10B1784,2013-06-15 23:58:00,
2013-06-15 20:03:00,66.1,56.0,29.85,West,273,0.0,0.0,70,0.00,,,0.01,WeatherCatV1.10B1784,2013-06-16 00:03:00,
2013-06-15 20:08:00,65.3,56.4,29.85,West,273,0.0,0.0,73,0.00,,,0.01,WeatherCatV1.10B1784,2013-06-16 00:08:00,
2013-06-15 20:13:00,64.7,56.2,29.85,West,273,0.0,0.0,74,0.00,,,0.01,WeatherCatV1.10B1784,2013-06-16 00:13:00,
2013-06-15 20:18:00,64.2,56.1,29.85,West,273,0.0,0.0,75,0.00,,,0.01,WeatherCatV1.10B1784,2013-06-16 00:18:00,
2013-06-15 20:23:00,63.7,55.6,29.86,West,273,0.0,0.0,75,0.00,,,0.01,WeatherCatV1.10B1784,2013-06-16 00:23:00,
2013-06-15 20:28:00,63.4,55.3,29.86,West,273,0.0,0.0,75,0.00,,,0.01,WeatherCatV1.10B1784,2013-06-16 00:28:00,
2013-06-15 20:33:00,63.0,54.6,29.86,West,273,0.0,0.0,74,0.00,,,0.01,WeatherCatV1.10B1784,2013-06-16 00:33:00,
2013-06-15 20:38:00,62.6,54.2,29.86,West,273,0.0,0.0,74,0.00,,,0.01,WeatherCatV1.10B1784,2013-06-16 00:38:00,
2013-06-15 20:43:00,62.3,53.9,29.86,West,273,0.0,0.0,74,0.00,,,0.01,WeatherCatV1.10B1784,2013-06-16 00:43:00,
2013-06-15 20:48:00,62.0,54.0,29.86,West,273,0.0,0.0,75,0.00,,,0.01,WeatherCatV1.10B1784,2013-06-16 00:48:00,
2013-06-15 20:53:00,61.9,53.9,29.87,West,273,0.0,0.0,75,0.00,,,0.01,WeatherCatV1.10B1784,2013-06-16 00:53:00,
2013-06-15 20:58:00,61.7,53.7,29.86,West,273,0.0,0.0,75,0.00,,,0.01,WeatherCatV1.10B1784,2013-06-16 00:58:00,
2013-06-15 21:03:00,61.4,54.1,29.86,West,273,0.0,0.0,77,0.00,,,0.01,WeatherCatV1.10B1784,2013-06-16 01:03:00,
2013-06-15 21:08:00,61.2,53.9,29.87,West,273,0.0,0.0,77,0.00,,,0.01,WeatherCatV1.10B1784,2013-06-16 01:08:00,
2013-06-15 21:13:00,60.9,53.3,29.86,West,273,0.0,0.0,76,0.00,,,0.01,WeatherCatV1.10B1784,2013-06-16 01:13:00,
2013-06-15 21:18:00,60.8,52.5,29.87,West,273,0.0,0.0,74,0.00,,,0.01,WeatherCatV1.10B1784,2013-06-16 01:18:00,
2013-06-15 21:23:00,60.7,52.7,29.87,West,273,0.0,0.0,75,0.00,,,0.01,WeatherCatV1.10B1784,2013-06-16 01:23:00,
2013-06-15 21:28:00,60.6,53.0,29.87,West,273,0.0,0.0,76,0.00,,,0.01,WeatherCatV1.10B1784,2013-06-16 01:28:00,
2013-06-15 21:33:00,60.4,53.5,29.87,West,273,0.0,0.0,78,0.00,,,0.01,WeatherCatV1.10B1784,2013-06-16 01:33:00,
2013-06-15 21:38:00,60.1,53.6,29.88,West,273,0.0,0.0,79,0.00,,,0.01,WeatherCatV1.10B1784,2013-06-16 01:38:00,
2013-06-15 21:43:00,59.8,52.9,29.88,West,273,0.0,0.0,78,0.00,,,0.01,WeatherCatV1.10B1784,2013-06-16 01:43:00,
2013-06-15 21:48:00,59.6,53.1,29.88,West,273,0.0,0.0,79,0.00,,,0.01,WeatherCatV1.10B1784,2013-06-16 01:48:00,
2013-06-15 21:53:00,59.5,53.0,29.88,West,273,0.0,0.0,79,0.00,,,0.01,WeatherCatV1.10B1784,2013-06-16 01:53:00,
2013-06-15 21:58:00,59.4,51.8,29.88,West,273,0.0,0.0,76,0.00,,,0.01,WeatherCatV1.10B1784,2013-06-16 01:58:00,
2013-06-15 22:03:00,59.5,51.9,29.88,West,273,0.0,0.0,76,0.00,,,0.01,WeatherCatV1.10B1784,2013-06-16 02:03:00,
2013-06-15 22:08:00,59.4,52.5,29.88,West,273,0.0,0.0,78,0.00,,,0.01,WeatherCatV1.10B1784,2013-06-16 02:08:00,
2013-06-15 22:13:00,59.4,52.2,29.88,West,273,0.0,0.0,77,0.00,,,0.01,WeatherCatV1.10B1784,2013-06-16 02:13:00,
2013-06-15 22:18:00,59.3,52.1,29.88,West,273,0.0,0.0,77,0.00,,,0.01,WeatherCatV1.10B1784,2013-06-16 02:18:00,
2013-06-15 22:23:00,59.1,52.6,29.88,West,273,0.0,0.0,79,0.00,,,0.01,WeatherCatV1.10B1784,2013-06-16 02:23:00,
2013-06-15 22:28:00,59.0,52.5,29.89,West,273,0.0,0.0,79,0.00,,,0.01,WeatherCatV1.10B1784,2013-06-16 02:28:00,
2013-06-15 22:33:00,59.1,51.9,29.89,West,273,0.0,0.0,77,0.00,,,0.01,WeatherCatV1.10B1784,2013-06-16 02:33:00,
2013-06-15 22:38:00,59.3,52.4,29.89,West,273,0.0,0.0,78,0.00,,,0.01,WeatherCatV1.10B1784,2013-06-16 02:38:00,
2013-06-15 22:43:00,59.2,52.3,29.89,West,273,0.0,0.0,78,0.00,,,0.01,WeatherCatV1.10B1784,2013-06-16 02:43:00,
2013-06-15 22:48:00,59.1,52.2,29.89,West,273,0.0,0.0,78,0.00,,,0.01,WeatherCatV1.10B1784,2013-06-16 02:48:00,
2013-06-15 22:53:00,59.0,52.5,29.89,West,273,0.0,0.0,79,0.00,,,0.01,WeatherCatV1.10B1784,2013-06-16 02:53:00,
2013-06-15 22:58:00,58.9,52.4,29.89,West,273,0.0,0.0,79,0.00,,,0.01,WeatherCatV1.10B1784,2013-06-16 02:58:00,
2013-06-15 23:03:00,58.9,52.0,29.89,West,273,0.0,0.0,78,0.00,,,0.01,WeatherCatV1.10B1784,2013-06-16 03:03:00,
2013-06-15 23:08:00,58.8,52.0,29.89,West,273,0.0,0.0,78,0.00,,,0.01,WeatherCatV1.10B1784,2013-06-16 03:08:00,
2013-06-15 23:13:00,58.9,51.7,29.89,West,273,0.0,0.0,77,0.00,,,0.01,WeatherCatV1.10B1784,2013-06-16 03:13:00,
2013-06-15 23:18:00,59.0,51.1,29.89,West,273,0.0,0.0,75,0.00,,,0.01,WeatherCatV1.10B1784,2013-06-16 03:18:00,
2013-06-15 23:23:00,59.3,51.4,29.90,West,273,0.0,0.0,75,0.00,,,0.01,WeatherCatV1.10B1784,2013-06-16 03:23:00,
2013-06-15 23:28:00,59.4,51.5,29.90,West,273,0.0,0.0,75,0.00,,,0.01,WeatherCatV1.10B1784,2013-06-16 03:28:00,
2013-06-15 23:33:00,59.4,50.7,29.90,West,273,0.0,0.0,73,0.00,,,0.01,WeatherCatV1.10B1784,2013-06-16 03:33:00,
2013-06-15 23:38:00,59.5,51.6,29.90,West,273,0.0,0.0,75,0.00,,,0.01,WeatherCatV1.10B1784,2013-06-16 03:38:00,
2013-06-15 23:43:00,59.6,51.3,29.90,West,273,0.0,0.0,74,0.00,,,0.01,WeatherCatV1.10B1784,2013-06-16 03:43:00,
2013-06-15 23:48:00,59.6,51.3,29.90,West,273,0.0,0.0,74,0.00,,,0.01,WeatherCatV1.10B1784,2013-06-16 03:48:00,
2013-06-15 23:53:00,59.6,50.9,29.90,West,273,0.0,0.0,73,0.00,,,0.01,WeatherCatV1.10B1784,2013-06-16 03:53:00,
2013-06-15 23:58:00,59.6,50.6,29.90,West,273,0.0,0.0,72,0.00,,,0.01,WeatherCatV1.10B1784,2013-06-16 03:58:00,